This demonstration page uses our WeatherBlox Daily Observations layout. Learn more.

Left ArrowRight Arrow

Hourly Observations for November 30, 2022

Temp ( °F °C ) Dew Point ( °F °C ) Humidity (%) Winds ( mph kmh ) Pressure ( in mb ) Visibility ( mi km ) Precip ( " mm )
12:53 am 00:53 Clear 35 1.7 26 -3.3 69 69 Calm 30.01 1016 10 16 0.00 0.00
1:53 am 01:53 Clear 34 1.1 26 -3.3 72 72 Calm 30.01 1016 10 16 0.00 0.00
2:53 am 02:53 Clear 32 0 25 -3.9 75 75 Calm 30.01 1016 10 16 0.00 0.00
3:53 am 03:53 Clear 32 0 26 -3.3 78 78 Calm 29.99 1016 10 16 0.00 0.00
4:53 am 04:53 Clear 33 0.6 26 -3.3 75 75 Calm 29.99 1016 9 14 0.00 0.00
5:53 am 05:53 Clear 33 0.6 27 -2.8 78 78 Calm 29.99 1016 10 16 0.00 0.00
6:24 am 06:24 Clear 34 1.1 27 -2.8 75 75 Calm 30.02 1016 10 16 0.00 0.00
6:53 am 06:53 Clear 33 0.6 27 -2.8 78 78 Calm 29.98 1015 10 16 0.00 0.00
7:53 am 07:53 Sunny 34 1.1 27 -2.8 75 75 Calm 29.99 1016 10 16 0.00 0.00
8:53 am 08:53 Sunny 37 2.8 29 -1.7 72 72 Calm 29.99 1016 10 16 0.00 0.00
9:53 am 09:53 Partly Cloudy 42 5.6 30 -1.1 62 62 Calm 29.99 1016 10 16 0.00 0.00
10:53 am 10:53 Sunny 46 7.8 31 -0.6 55 55 Calm 29.98 1015 10 16 0.00 0.00
11:53 am 11:53 Mostly Cloudy 49 9.4 32 0 52 52 SSE 5 7 29.95 1014 10 16 0.00 0.00
12:53 pm 12:53 Cloudy 50 10 32 0 50 50 S 8 13 29.91 1013 10 16 0.00 0.00
1:53 pm 13:53 Cloudy 51 10.6 32 0 48 48 S 5 7 29.89 1012 10 16 0.00 0.00
2:53 pm 14:53 Sunny 51 10.6 32 0 48 48 Calm 29.87 1011 10 16 0.00 0.00
3:53 pm 15:53 Partly Cloudy 52 11.1 33 0.6 48 48 S 6 9 29.85 1011 10 16 0.00 0.00
4:53 pm 16:53 Cloudy 49 9.4 34 1.1 56 56 ESE 3 6 29.83 1010 8 13 0.00 0.00
5:53 pm 17:53 Cloudy 49 9.4 34 1.1 56 56 N 3 6 29.81 1010 9 14 0.00 0.00
6:53 pm 18:53 Cloudy 48 8.9 35 1.7 61 61 Calm 29.80 1009 8 13 0.00 0.00
7:53 pm 19:53 Cloudy 52 11.1 33 0.6 48 48 S 20 31 29.77 1008 10 16 0.00 0.00
8:53 pm 20:53 Cloudy 53 11.7 35 1.7 50 50 S 17 28 29.76 1008 10 16 0.00 0.00
9:53 pm 21:53 Cloudy 52 11.1 36 2.2 54 54 SSW 14 22 29.75 1008 10 16 0.00 0.00
10:53 pm 22:53 Cloudy with Light Rain 50 10 40 4.4 68 68 S 21 33 29.73 1007 10 16 0.01 0.13
11:53 pm 23:53 Cloudy 50 10 41 5 71 71 S 23 37 29.71 1006 10 16 0.01 0.13

Powered by AerisWeather